Regional Weather Roundup
Issued by NWS

Home | Current Version | Previous Version | Graphics & Text | Print | Product List | Glossary On
Versions: 1 2 3 4 5 6 7 8 9 10 11 12 13 14 15 16 17 18 19 20 21 22 23 24 25 26 27 28 29 30 31 32 33 34 35 36 37 38 39 40 41 42 43 44 45 46 47 48 49 50
000
ASUS43 KLMK 060310
RWRKY
KENTUCKY REGIONAL WEATHER ROUNDUP
NATIONAL WEATHER SERVICE LOUISVILLE KY
1100 PM EDT TUE MAY 05 2015

NOTE "FAIR" INDICATES FEW OR NO CLOUDS BELOW 12,000 FEET
WITH NO SIGNIFICANT WEATHER AND/OR OBSTRUCTIONS TO VISIBILITY.

KYZ001>023-026-027-061>063-070>075-060400-
WESTERN AND SOUTH CENTRAL KENTUCKY

CITY           SKY/WX    TMP DP  RH WIND       PRES   REMARKS
PADUCAH        CLEAR     67  56  67 SE6       30.16R
HENDERSON      CLEAR     64  52  63 S3        30.17R
OWENSBORO      CLEAR     71  56  59 CALM      30.19R
HOPKINSVILLE   CLEAR     70  55  57 CALM      30.19R
BOWLING GREEN  CLEAR     65  55  70 CALM      30.20R
GLASGOW        CLEAR     64  55  75 CALM      30.21S
$$

KYZ024-025-028>034-038-045-046-053-060400-
NORTH CENTRAL KENTUCKY

CITY           SKY/WX    TMP DP  RH WIND       PRES   REMARKS
LOUISVILLE/SDF CLEAR     74  53  48 CALM      30.20R
LOUISVILLE/LOU CLEAR     71  54  54 CALM      30.20R
FORT KNOX      CLEAR     65  56  72 CALM      30.20R
$$

KYZ035>037-039>044-047>052-055>060-089>105-060400-
NORTHEAST KENTUCKY

CITY           SKY/WX    TMP DP  RH WIND       PRES   REMARKS
LEXINGTON      CLEAR     65  56  72 S3        30.23R
COVINGTON      CLEAR     69  53  56 S3        30.21R
FRANKFORT      CLEAR     63  54  72 CALM      30.20R
$$

KYZ054-064>069-076>088-106>120-060400-
SOUTHEAST KENTUCKY

CITY           SKY/WX    TMP DP  RH WIND       PRES   REMARKS
JACKSON        CLEAR     73  50  44 CALM      30.25R
LONDON         CLEAR     65  54  67 CALM      30.24R
SOMERSET       CLEAR     63  54  72 CALM      30.25R
MIDDLESBORO    CLEAR     62  55  79 CALM      30.26R
MONTICELLO     CLEAR     61  56  83 CALM      30.26R
$$




USA.gov is the U.S. government's official web portal to all federal, state and local government web resources and services.